Weather History for Kendall, FL

Change the Weather History Date:

Thursday, October 4, 2012

  Actual Average Record
Temperature  
Mean Temperature 83 °F -  
Max Temperature 90 °F 87 °F 92 °F (1991)
Min Temperature 77 °F 72 °F 68 °F (1989)
Cooling Degree Days 18    
Growing Degree Days 33 (Base 50)    
Moisture  
Dew Point 75 °F    
Average Humidity 78    
Maximum Humidity 96    
Minimum Humidity 61    
Precipitation  
Precipitation 0.19 in - - ()
Sea Level Pressure  
Sea Level Pressure 30.11 in    
Wind  
Wind Speed 8 mph (East)    
Max Wind Speed 14 mph    
Max Gust Speed 28 mph    
Visibility 10 miles    
Events Rain    
Averages and records for this station are not official NWS values.
T = Trace of Precipitation, MM = Missing Value Source: NWS Daily Summary

Daily Weather History Graph

Daily Weather History Graph

Search for Another Location

Airport:

Trip Planner

Search our weather history database for the weather conditions in past years. The results will help you decide how hot, cold, wet, or windy it might be!

Date:

Astronomy

Oct. 04, 2012 Rise Set
Actual Time 7:15 AM EDT 7:04 PM EDT
Civil Twilight 6:52 AM EDT 7:27 PM EDT
Nautical Twilight 6:25 AM EDT 7:54 PM EDT
Astronomical Twilight 5:59 AM EDT 8:20 PM EDT
Moon 10:05 PM EDT (10/4) 11:05 AM EDT (10/4)
Length of Visible Light 12h 35m
Length of Day
11h 49m
Waning Gibbous, 82% of the Moon is Illuminated
Oct 4
Waning Gibbous
Oct 8
Last Quarter
Oct 15
New
Oct 21
First Quarter
Oct 29
Full

Hourly Weather History & Observations

Time (EDT) Temp. Heat Index Dew Point Humidity Pressure Visibility Wind Dir Wind Speed Gust Speed Precip Events Conditions
12:53 AM 79.0 °F - 70.0 °F 74% 30.15 in 4.0 mi East 6.9 mph 27.6 mph 0.14 in Rain Light Rain
1:53 AM 79.0 °F - 77.0 °F 94% 30.12 in 10.0 mi East 8.1 mph - 0.00 in   Clear
2:53 AM 78.1 °F - 75.9 °F 93% 30.11 in 10.0 mi East 4.6 mph - N/A   Clear
3:53 AM 79.0 °F - 77.0 °F 94% 30.10 in 10.0 mi ENE 6.9 mph - N/A   Partly Cloudy
4:53 AM 78.1 °F - 75.9 °F 93% 30.10 in 10.0 mi Calm Calm - N/A   Partly Cloudy
5:53 AM 77.0 °F - 75.0 °F 94% 30.11 in 10.0 mi Calm Calm - N/A   Mostly Cloudy
6:53 AM 77.0 °F - 75.9 °F 96% 30.11 in 10.0 mi East 4.6 mph - 0.05 in   Partly Cloudy
7:53 AM 80.1 °F 85.8 °F 77.0 °F 90% 30.12 in 10.0 mi ESE 6.9 mph - N/A   Partly Cloudy
8:53 AM 84.0 °F 93.7 °F 77.0 °F 79% 30.14 in 10.0 mi ESE 4.6 mph - N/A   Clear
9:53 AM 84.9 °F 94.1 °F 75.9 °F 74% 30.14 in 10.0 mi SE 11.5 mph - N/A   Mostly Cloudy
10:07 AM 84.2 °F 94.1 °F 77.0 °F 79% 30.15 in 10.0 mi East 11.5 mph - N/A   Scattered Clouds
10:18 AM 84.2 °F 92.3 °F 75.2 °F 74% 30.15 in 10.0 mi ESE 12.7 mph - N/A   Mostly Cloudy
10:26 AM 86.0 °F 95.1 °F 75.2 °F 70% 30.15 in 10.0 mi ESE 13.8 mph - N/A   Scattered Clouds
10:53 AM 88.0 °F 98.5 °F 75.9 °F 67% 30.14 in 10.0 mi SE 12.7 mph - N/A   Scattered Clouds
11:53 AM 89.1 °F 99.1 °F 75.0 °F 63% 30.15 in 10.0 mi East 11.5 mph - N/A   Partly Cloudy
12:53 PM 89.1 °F 98.0 °F 73.9 °F 61% 30.13 in 10.0 mi SE 12.7 mph - N/A   Partly Cloudy
1:53 PM 87.1 °F 95.4 °F 73.9 °F 65% 30.12 in 10.0 mi ESE 9.2 mph - N/A   Partly Cloudy
2:53 PM 89.1 °F 98.0 °F 73.9 °F 61% 30.09 in 10.0 mi ESE 10.4 mph - 0.00 in   Partly Cloudy
3:53 PM 88.0 °F 96.5 °F 73.9 °F 63% 30.07 in 10.0 mi ESE 11.5 mph - N/A   Clear
4:53 PM 87.1 °F 95.4 °F 73.9 °F 65% 30.06 in 10.0 mi East 11.5 mph - N/A   Clear
5:53 PM 84.2 °F 90.9 °F 73.4 °F 70% 30.06 in 10.0 mi East 11.5 mph - N/A   Clear
6:53 PM 82.9 °F 90.8 °F 75.9 °F 79% 30.08 in 10.0 mi East 8.1 mph - N/A   Clear
7:53 PM 82.9 °F 90.8 °F 75.9 °F 79% 30.08 in 10.0 mi East 9.2 mph - N/A   Clear
8:53 PM 82.9 °F 90.8 °F 75.9 °F 79% 30.09 in 10.0 mi ENE 8.1 mph - N/A   Clear
9:53 PM 82.0 °F 89.4 °F 75.9 °F 82% 30.12 in 10.0 mi ENE 4.6 mph - N/A   Clear
10:53 PM 81.0 °F 87.3 °F 75.9 °F 85% 30.12 in 10.0 mi ENE 4.6 mph - N/A   Clear
11:53 PM 81.0 °F 87.3 °F 75.9 °F 85% 30.10 in 10.0 mi ENE 4.6 mph - N/A   Clear